Find Starlink 4129

NORAD ID: 53251 Int'l Des: 2022-086 Owner: SPXS Country: US Constellation: starlink operational
LEOCIRCULAR

当前视图

正在加载3D地球...

About Starlink 4129

Starlink 4129 (NORAD 53251) is a starlink constellation satellite (v1.5) launched Jul 24, 2022 by SPXS of US. It operates in LEO, CIRCULAR orbit with a mass of 297.00 kg.

关于 Starlink 4129

正在加载描述...

即将过境

Passes for default location (London). Set your location on the main map for personalized predictions.

高度历史

Loading altitude history...

两行轨道根数

1 53251U 22086K 26167.53245301 -.00000087 00000-0 12635-4 0 9996
2 53251 53.1616 110.3072 0001369 86.4705 273.6443 15.08832653215988
Epoch: Jun 16, 2026 • Age: 4 hours

当前状态

高度 557.8 km
速度 7.58 km/s
星下点 -49.83°S, 115.89°W
发射日期 Jul 24, 2022
运行时间 3.8 years
类型 internet

技术详情

分类 Payload
质量 297.00 kg
干质量 275.00 kg
总质量 297.00 kg
长度 0.20 m
直径 2.80 m
跨度 9.00 m
形状 Box + pan
制造商 SPXS
平台类型 Starlink
阶段状态 In Orbit
所有者/国家 SPXS/US

Most Searched